Location: Bourg-d�Oueil
(42.8588°N, 0.4991°E)
Time: 18:10:34
(UTC+00:00)

Cosmos 389 Rocket - Pass Details

Date: 16 June 2021
Orbit: 440 x 471 km, 81.1° (Epoch: 30 July)

Event Time Altitude Azimuth Distance (km) Brightness Sun altitude
Rises 23:32:20 0° 337° (NNW) 2,443 7.4 -23.5°
Reaches altitude 10° 23:34:38 10° 324° (NW) 1,570 5.9 -23.5°
Enters shadow 23:36:49 23° 286° (WNW) 994 4.3 -23.6°
